INTELSAT 33E DEB, 64408

Orbit data source: Space-Track

INTELSAT 33E DEB, 64408 is space debris in GEO originally from a launch on Wed, 24 Aug 2016 UTC launched from the French Guiana (FRGUI). Debris objects in space refer to the collection of defunct objects orbiting the Earth. Examples of debris include non-operational satellites, rocket bodies, and fragments generated from explosions, collisions, or faulty payload assembly.

Loading next visibility...
Identifier
64408, 2016-053AN
Orbit
GEO
Last TLE update
2 days ago
Origin
Flag of UnknownINTELU (Unknown / ITSO)
Manufacturer
Boeing/ES
Mission
Spacecraft
Bus & Motor
Unknown
Mass
Unknown
Launch date (UTC)
2016-08-24 (9 years ago)
Launch vehicle
Unknown
Launch site
French Guiana (FRGUI)
Object type
Payload
Rocket body
Debris
Shape & HBR
Unknown
Radar Cross Section
RCS unknown

Expand to show TLE details & history

TLE from 2 days ago
0 INTELSAT 33E DEB
1 64408U 16053AN  25180.88314896 -.00000146  00000-0  00000-0 0  9992
2 64408   1.2495 103.4167 1566366 319.0985  29.4183  1.03230566  2448
Epoch: 2025-06-29T21:11Z
TLE epoch observation values (Epoch: 2025-06-29T21:11:44.07Z)
Latitude
0.00001°
Longitude
-133.69547°
Altitude
29,617.585 km
Speed
3.537 km/s
True Right ascension
06h 49m 45s
True Declination
0° 00' 00"
Sunlit
Object was in daylight at epoch
Visualization orbit readout
Latitude
-0.20105°
Longitude
55.56198°
Altitude
38,589.992 km
Speed
2.844 km/s
Apparent Right ascension
19h 10m 16s
Apparent Declination
-5° 51' 48"
Sunlit
Object is in daylight
Visualization observer readout
Local Sidereal Time
21:55:47
Azimuth
229.719° WSW
Elevation
30.46°
Doppler factor
1
Orbital elements
Apogee altitude
41,456.054 km
Perigee altitude
28,500.239 km
Semi-major axis
41,356.283 km
Eccentricity
0.15664
Inclination
1.2495°
RAAN
103.4167°
Arg. of periapsis
319.0985°
True anomaly
Unknown
Mean anomaly
29.4183°
Eccentric anomaly
Unknown
Mean motion
0.25807 °/min
Orbital period
1,394.99 mins
BSTAR
0
Loading historical data...
64408 neighbors
Loading maneuver chart data...
Loading SW <> Apogee altitude chart data...
Loading historical data...
Loading historical data...
Loading historical data...
Loading historical data...
Loading historical data...
Loading historical data...
Loading historical data...

INTELSAT 33E DEB Visibility forecast

Observer location: undefined°, undefined°

Span
Click to sort rows by Start time (UTC) header in descending order
Start Az.
Max El. time (UTC)
Max El. Az.
Max El.
End time (UTC)
End Az.
1440 mins2025-07-01 10:17:21.812Z229.706° WSW2025-07-02 01:49:21.812Z183.889° SSW35.579°2025-07-02 10:17:21.812Z219.719° SW
|